Simultaneous Nadir Overpasses (SNOs) Predictions

Prediction of SNOs near equator between AQUA and NPP Satellite Orbit:

Table of predicted SNOs near equator for the next 14.0 days since TLE Epoch: 3/12/2022
Index Date (AQUA) Time (AQUA) AQUA Lat,Lon Date (NPP) Time (NPP) NPP Lat,Lon Distance(km) Time Diff (sec)
1 03/13/2022 23:21:46 15.47,-148.47 03/13/2022 23:11:46 15.51,-149.05 62.62 600
2 03/14/2022 00:07:26 -2.06, 22.10 03/13/2022 23:58:35 -1.89, 21.38 81.97 531
3 03/16/2022 15:35:05 4.58, -30.17 03/16/2022 15:25:32 4.45, -30.75 66.10 573
4 03/16/2022 16:23:12 -0.05, 138.46 03/16/2022 16:14:55 0.12, 137.60 96.74 497
5 03/19/2022 07:08:55 -29.94, -87.71 03/19/2022 06:58:55 -30.06, -88.48 75.27 600
6 03/19/2022 07:50:51 2.54, 86.19 03/19/2022 07:41:52 2.38, 85.48 81.05 539
7 03/21/2022 23:18:21 -5.05, 33.97 03/21/2022 23:08:41 -4.92, 33.39 65.65 580
8 03/22/2022 00:06:36 0.47,-157.43 03/21/2022 23:58:11 0.27,-158.27 96.10 505
9 03/24/2022 15:34:04 -2.89, 150.36 03/24/2022 15:24:59 -2.75, 149.65 80.87 545
